Weather in Primorskiy

Russia / Chelyabinsk Oblast     53°32′47″N   59°07′03″E
temp.,
°C
wind,
m/s
gust,
m/s
humid.,
%
clouds,
%
prec.,
mm/h
press.,
hPa
HPBL,
m
27 july, tue
tue2723:00+14n23553 0.0 102070
02:00+12wnw11594 0.0 102018
05:00+11wsw22625 0.0 101956
08:00+15wsw23495 0.0 1018217
11:00+20wnw46365 0.0 10172066
14:00+21nw6635100 0.0 10152470
17:00+22wnw573747 0.0 10142206
20:00+19w365033 0.0 1013513
28 july, wed
wed2823:00+15wsw245885 0.0 101383
02:00+16w396054 0.1 1013396
05:00+12nw39845 0.6 1012194
08:00+16nw486716 0.0 1013529
11:00+20nw573896 0.0 10122412
14:00+20nw574050 0.0 10121676
17:00+21nw68333 0.0 10112119
20:00+18nw47430 0.0 1012633
29 july, thu
thu2923:00+14wsw12501 0.0 101321
02:00+12nw11555 0.0 101414
05:00+11w11581 0.0 101413
08:00+15w23480 0.0 1014207
11:00+20wnw45360 0.0 10141709
14:00+23wnw352810 0.0 10122359
17:00+25wnw46255 0.0 10112577
20:00+21nnw1140100 0.0 101128
30 july, fri
fri3023:00+18ssw2241100 0.0 101143
02:00+18wsw3845100 0.1 1010190
05:00+15s51468100 1.1 1007450
08:00+20sw6154893 0.0 1006896
11:00+25wsw81344100 0.0 10051428
14:00+26w9134897 0.0 10051970
17:00+26wnw6948100 0.0 10061833
20:00+22wnw376176 0.0 1007555
31 july, sat
sat3123:00+19wsw237155 0.0 100847
02:00+19wsw24692 0.0 1009108
05:00+17w2275100 0.0 100925
08:00+21wnw1263100 0.0 1010159
11:00+26w3446100 0.0 10101371
14:00+25sw5546100 0.0 10101224
17:00+27sw224178 0.0 10091969
20:00+24w345612 0.0 1009210